Marsa Alam International, Egypt

1:21 AM EET on November 21, 2017 (GMT +0200)
Marsa Alam International

Weather History for HEMA - December, 2013

Change the Weather History Date:

Thursday, December 26, 2013

  Actual Average Record
Temperature  
Mean Temperature 68 °F -  
Max Temperature 75 °F - - ()
Min Temperature 60 °F - - ()
Cooling Degree Days 2    
Growing Degree Days 18 (Base 50)    
Moisture  
Dew Point 56 °F    
Average Humidity 65    
Maximum Humidity 77    
Minimum Humidity 47    
Precipitation  
Precipitation 0.00 in - - ()
Sea Level Pressure  
Sea Level Pressure 30.04 in    
Wind  
Wind Speed 7 mph ()    
Max Wind Speed 13 mph    
Max Gust Speed -    
Visibility 6.2 miles    
Events      
T = Trace of Precipitation, MM = Missing Value Source: Averaged Metar Reports

Daily Weather History Graph

Daily Weather History Graph

Search for Another Location

Airport or City:

Trip Planner

Search our weather history database for the weather conditions in past years. The results will help you decide how hot, cold, wet, or windy it might be!

Date:

Astronomy

Dec. 26, 2013 Rise Set
Actual Time 6:25 AM EET 4:58 PM EET
Civil Twilight 6:00 AM EET 5:24 PM EET
Nautical Twilight 5:31 AM EET 5:52 PM EET
Astronomical Twilight 5:03 AM EET 6:20 PM EET
Moon 12:01 AM EET (12/26) 11:57 AM EET (12/26)
Length of Visible Light 11h 23m
Length of Day
10h 33m
Last Quarter, 41% of the Moon is Illuminated
Dec 26
Last Quarter
Jan 1
New
Jan 8
First Quarter
Jan 16
Full
Jan 24
Last Quarter

Hourly Weather History & Observations

Time (EET) Temp. Dew Point Humidity Pressure Visibility Wind Dir Wind Speed Gust Speed Precip Events Conditions
12:00 AM 62.6 °F 51.8 °F 68% 30.06 in - West 8.1 mph - N/A   Clear
1:00 AM 62.6 °F 53.6 °F 72% 30.06 in - West 9.2 mph - N/A   Clear
2:00 AM 62.6 °F 53.6 °F 72% 30.04 in - West 8.1 mph - N/A   Clear
3:00 AM 62.6 °F 53.6 °F 72% 30.04 in - West 9.2 mph - N/A   Clear
4:00 AM 62.6 °F 53.6 °F 72% 30.04 in - WNW 9.2 mph - N/A   Clear
5:00 AM 60.8 °F 53.6 °F 77% 30.04 in - West 10.4 mph - N/A   Clear
6:00 AM 62.6 °F 53.6 °F 72% 30.06 in - WSW 6.9 mph - N/A   Clear
7:00 AM 62.6 °F 53.6 °F 72% 30.06 in - West 6.9 mph - N/A   Clear
8:00 AM 68.0 °F 57.2 °F 68% 30.06 in 6.2 mi West 5.8 mph - N/A   Partly Cloudy
9:00 AM 69.8 °F 57.2 °F 64% 30.06 in 6.2 mi NW 8.1 mph - N/A   Scattered Clouds
10:00 AM 71.6 °F 55.4 °F 57% 30.09 in 6.2 mi NNW 11.5 mph - N/A   Scattered Clouds
11:00 AM 71.6 °F 53.6 °F 53% 30.09 in 6.2 mi North 9.2 mph - N/A   Partly Cloudy
12:00 PM 75.2 °F 55.4 °F 50% 30.04 in 6.2 mi NE 5.8 mph - N/A   Partly Cloudy
1:00 PM 75.2 °F 53.6 °F 47% 30.04 in 6.2 mi NE 6.9 mph - N/A   Partly Cloudy
2:00 PM 73.4 °F 62.6 °F 69% 30.04 in 6.2 mi ENE 6.9 mph - N/A   Partly Cloudy
3:00 PM 73.4 °F 62.6 °F 69% 29.98 in - NNE 9.2 mph - N/A   Clear
4:00 PM 73.4 °F 59.0 °F 61% 29.98 in - NNE 12.7 mph - N/A   Clear
5:00 PM 73.4 °F 57.2 °F 57% 30.01 in - North 10.4 mph - N/A   Clear
6:00 PM 73.4 °F 57.2 °F 57% 30.01 in - North 6.9 mph - N/A   Clear
8:00 PM 68.0 °F 55.4 °F 64% 30.04 in - WNW 8.1 mph - N/A   Clear
9:00 PM 68.0 °F 55.4 °F 64% 30.04 in - NW 8.1 mph - N/A   Clear
10:00 PM 66.2 °F 55.4 °F 68% 30.04 in - West 6.9 mph - N/A   Clear
11:00 PM 66.2 °F 57.2 °F 73% 30.04 in - WNW 9.2 mph - N/A   Clear